Time,TemperatureF,DewpointF,PressureIn,WindDirection,WindDirectionDegrees,WindSpeedMPH,WindSpeedGustMPH,Humidity,HourlyPrecipIn,Conditions,Clouds,dailyrainin,SoftwareType,DateUTC
2013-08-17 00:00:00,84.5,78.8,30.03,SE,124,2.0,8.0,83,0.00,,SCT021,0.00,VWS V13.01,2013-08-17 04:00:00,
2013-08-17 00:01:00,84.5,78.8,30.03,SE,124,1.0,8.0,83,0.00,,SCT021,0.00,VWS V13.01,2013-08-17 04:01:00,
2013-08-17 00:06:00,84.5,78.8,30.03,SE,130,2.0,2.0,83,0.00,,SCT021,0.00,VWS V13.01,2013-08-17 04:06:00,
2013-08-17 00:11:00,84.3,78.6,30.03,SE,137,4.0,6.0,83,0.00,,SCT021,0.00,VWS V13.01,2013-08-17 04:11:00,
2013-08-17 00:16:00,84.2,78.5,30.03,ESE,122,1.0,6.0,83,0.00,,SCT021,0.00,VWS V13.01,2013-08-17 04:16:00,
2013-08-17 00:21:00,84.0,78.3,30.03,SE,140,1.0,6.0,83,0.00,,SCT021,0.00,VWS V13.01,2013-08-17 04:21:00,
2013-08-17 00:26:00,83.9,78.6,30.03,SE,128,1.0,6.0,84,0.00,,SCT021,0.00,VWS V13.01,2013-08-17 04:26:00,
2013-08-17 00:31:00,83.9,78.6,30.03,SE,132,0.0,6.0,84,0.00,,SCT021,0.00,VWS V13.01,2013-08-17 04:31:00,
2013-08-17 00:36:00,83.8,78.4,30.03,SE,127,2.0,5.0,84,0.00,,SCT021,0.00,VWS V13.01,2013-08-17 04:36:00,
2013-08-17 00:41:00,83.7,78.0,30.03,ESE,102,4.0,6.0,83,0.00,,SCT021,0.00,VWS V13.01,2013-08-17 04:41:00,
2013-08-17 00:46:00,83.8,78.1,30.02,SE,124,4.0,6.0,83,0.00,,SCT021,0.00,VWS V13.01,2013-08-17 04:46:00,
2013-08-17 00:51:00,83.8,78.1,30.02,SE,130,1.0,6.0,83,0.00,,SCT021,0.00,VWS V13.01,2013-08-17 04:51:00,
2013-08-17 00:56:00,83.7,78.3,30.03,ESE,111,2.0,6.0,84,0.00,,SCT021,0.00,VWS V13.01,2013-08-17 04:56:00,
2013-08-17 01:01:00,83.7,78.3,30.02,SE,136,1.0,6.0,84,0.00,,SCT021,0.00,VWS V13.01,2013-08-17 05:01:00,
2013-08-17 01:06:00,83.6,78.3,30.02,SE,132,2.0,2.0,84,0.00,,SCT021,0.00,VWS V13.01,2013-08-17 05:06:00,
2013-08-17 01:11:00,83.5,78.2,30.02,SE,128,1.0,2.0,84,0.00,,SCT021,0.00,VWS V13.01,2013-08-17 05:11:00,
2013-08-17 01:16:00,83.4,78.4,30.02,SE,126,0.0,5.0,85,0.00,,SCT021,0.00,VWS V13.01,2013-08-17 05:16:00,
2013-08-17 01:21:00,83.4,78.4,30.01,SE,125,1.0,5.0,85,0.00,,SCT021,0.00,VWS V13.01,2013-08-17 05:21:00,
2013-08-17 01:26:00,83.4,78.4,30.01,ESE,119,4.0,6.0,85,0.00,,SCT021,0.00,VWS V13.01,2013-08-17 05:26:00,
2013-08-17 01:31:00,83.4,78.4,30.01,SE,141,2.0,6.0,85,0.00,,SCT021,0.00,VWS V13.01,2013-08-17 05:31:00,
2013-08-17 01:36:00,83.3,78.3,30.01,SE,135,1.0,5.0,85,0.00,,SCT021,0.00,VWS V13.01,2013-08-17 05:36:00,
2013-08-17 01:41:00,83.4,78.4,30.01,ESE,118,2.0,5.0,85,0.00,,SCT021,0.00,VWS V13.01,2013-08-17 05:41:00,
2013-08-17 01:46:00,83.4,78.4,30.01,SSE,150,2.0,5.0,85,0.00,,SCT021,0.00,VWS V13.01,2013-08-17 05:46:00,
2013-08-17 01:51:00,83.3,78.3,30.01,ESE,111,1.0,5.0,85,0.00,,SCT021,0.00,VWS V13.01,2013-08-17 05:51:00,
2013-08-17 01:56:00,83.3,78.0,30.01,ENE,78,4.0,5.0,84,0.00,,SCT021,0.00,VWS V13.01,2013-08-17 05:56:00,
2013-08-17 02:01:00,83.4,78.1,30.01,SE,124,1.0,5.0,84,0.00,,CLR,0.00,VWS V13.01,2013-08-17 06:01:00,
2013-08-17 02:06:00,83.5,77.8,30.01,SE,127,2.0,4.0,83,0.00,,CLR,0.00,VWS V13.01,2013-08-17 06:06:00,
2013-08-17 02:11:00,83.6,77.5,30.01,ESE,119,6.0,6.0,82,0.00,,CLR,0.00,VWS V13.01,2013-08-17 06:11:00,
2013-08-17 02:16:00,83.7,77.6,30.01,ESE,121,2.0,6.0,82,0.00,,CLR,0.00,VWS V13.01,2013-08-17 06:16:00,
2013-08-17 02:21:00,83.8,77.7,30.01,SE,125,2.0,6.0,82,0.00,,CLR,0.00,VWS V13.01,2013-08-17 06:21:00,
2013-08-17 02:26:00,83.8,77.7,30.01,SE,138,0.0,6.0,82,0.00,,CLR,0.00,VWS V13.01,2013-08-17 06:26:00,
2013-08-17 02:31:00,83.7,77.6,30.01,SE,143,0.0,6.0,82,0.00,,CLR,0.00,VWS V13.01,2013-08-17 06:31:00,
2013-08-17 02:36:00,83.6,77.9,30.01,SE,130,4.0,5.0,83,0.00,,CLR,0.00,VWS V13.01,2013-08-17 06:36:00,
2013-08-17 02:41:00,83.6,77.9,30.01,ESE,111,0.0,6.0,83,0.00,,CLR,0.00,VWS V13.01,2013-08-17 06:41:00,
2013-08-17 02:46:00,83.7,78.0,30.01,SE,144,2.0,6.0,83,0.00,,CLR,0.00,VWS V13.01,2013-08-17 06:46:00,
2013-08-17 02:51:00,83.7,78.0,30.01,SE,128,2.0,6.0,83,0.00,,CLR,0.00,VWS V13.01,2013-08-17 06:51:00,
2013-08-17 02:56:00,83.7,78.0,30.01,SE,129,1.0,6.0,83,0.00,,CLR,0.00,VWS V13.01,2013-08-17 06:56:00,
2013-08-17 03:01:00,83.7,78.0,30.01,ESE,102,4.0,6.0,83,0.00,,CLR,0.00,VWS V13.01,2013-08-17 07:01:00,
2013-08-17 03:05:00,83.7,78.0,30.01,ESE,110,4.0,5.0,83,0.00,,CLR,0.00,VWS V13.01,2013-08-17 07:05:00,
2013-08-17 03:10:00,83.7,78.0,30.01,East,98,4.0,7.0,83,0.00,,CLR,0.00,VWS V13.01,2013-08-17 07:10:00,
2013-08-17 03:15:00,83.8,78.1,30.00,SE,124,5.0,7.0,83,0.00,,CLR,0.00,VWS V13.01,2013-08-17 07:15:00,
2013-08-17 03:20:00,83.8,78.1,30.00,SE,138,1.0,7.0,83,0.00,,CLR,0.00,VWS V13.01,2013-08-17 07:20:00,
2013-08-17 03:25:00,83.7,78.0,30.00,ESE,103,4.0,7.0,83,0.00,,CLR,0.00,VWS V13.01,2013-08-17 07:25:00,
2013-08-17 03:30:00,83.6,77.9,30.00,ESE,109,6.0,9.0,83,0.00,,CLR,0.00,VWS V13.01,2013-08-17 07:30:00,
2013-08-17 03:35:00,83.7,78.0,30.00,East,98,1.0,7.0,83,0.00,,CLR,0.00,VWS V13.01,2013-08-17 07:35:00,
2013-08-17 03:40:00,83.7,78.0,30.00,ESE,123,4.0,8.0,83,0.00,,CLR,0.00,VWS V13.01,2013-08-17 07:40:00,
2013-08-17 03:45:00,83.6,77.9,30.00,SSE,147,1.0,9.0,83,0.00,,CLR,0.00,VWS V13.01,2013-08-17 07:45:00,
2013-08-17 03:50:00,83.6,77.9,30.00,ESE,123,4.0,9.0,83,0.00,,CLR,0.00,VWS V13.01,2013-08-17 07:50:00,
2013-08-17 03:55:00,83.5,77.8,30.00,SE,144,4.0,9.0,83,0.00,,CLR,0.00,VWS V13.01,2013-08-17 07:55:00,
2013-08-17 04:00:00,83.5,77.8,29.99,ESE,120,6.0,9.0,83,0.00,,CLR,0.00,VWS V13.01,2013-08-17 08:00:00,
2013-08-17 04:05:00,83.5,77.8,30.00,SE,136,2.0,8.0,83,0.00,,CLR,0.00,VWS V13.01,2013-08-17 08:05:00,
2013-08-17 04:10:00,83.6,77.5,30.00,SE,129,4.0,8.0,82,0.00,,CLR,0.00,VWS V13.01,2013-08-17 08:10:00,
2013-08-17 04:15:00,83.5,77.4,30.00,ESE,110,5.0,8.0,82,0.00,,CLR,0.00,VWS V13.01,2013-08-17 08:15:00,
2013-08-17 04:20:00,83.3,77.2,30.00,ESE,122,2.0,8.0,82,0.00,,CLR,0.00,VWS V13.01,2013-08-17 08:20:00,
2013-08-17 04:25:00,83.3,76.9,30.00,ESE,119,2.0,8.0,81,0.00,,CLR,0.00,VWS V13.01,2013-08-17 08:25:00,
2013-08-17 04:30:00,83.3,76.9,30.00,ESE,109,1.0,8.0,81,0.00,,CLR,0.00,VWS V13.01,2013-08-17 08:30:00,
2013-08-17 04:35:00,83.3,76.9,30.00,SE,128,1.0,6.0,81,0.00,,CLR,0.00,VWS V13.01,2013-08-17 08:35:00,
2013-08-17 04:40:00,83.2,76.8,30.00,ESE,117,5.0,6.0,81,0.00,,CLR,0.00,VWS V13.01,2013-08-17 08:40:00,
2013-08-17 04:45:00,83.3,76.9,30.00,SE,141,4.0,7.0,81,0.00,,CLR,0.00,VWS V13.01,2013-08-17 08:45:00,
2013-08-17 04:50:00,83.3,76.5,30.00,SE,135,5.0,7.0,80,0.00,,CLR,0.00,VWS V13.01,2013-08-17 08:50:00,
2013-08-17 04:55:00,83.2,76.0,30.00,ESE,113,1.0,7.0,79,0.00,,CLR,0.00,VWS V13.01,2013-08-17 08:55:00,
2013-08-17 05:00:00,83.2,76.0,30.00,South,169,1.0,7.0,79,0.00,,CLR,0.00,VWS V13.01,2013-08-17 09:00:00,
2013-08-17 05:05:00,83.3,75.7,30.00,SSE,156,5.0,5.0,78,0.00,,CLR,0.00,VWS V13.01,2013-08-17 09:05:00,
2013-08-17 05:10:00,83.2,75.6,30.00,ESE,123,1.0,7.0,78,0.00,,CLR,0.00,VWS V13.01,2013-08-17 09:10:00,
2013-08-17 05:15:00,83.2,75.6,30.00,SE,128,1.0,7.0,78,0.00,,CLR,0.00,VWS V13.01,2013-08-17 09:15:00,
2013-08-17 05:20:00,83.2,76.0,30.00,ESE,112,2.0,7.0,79,0.00,,CLR,0.00,VWS V13.01,2013-08-17 09:20:00,
2013-08-17 05:25:00,83.1,75.9,30.00,SE,126,0.0,7.0,79,0.00,,CLR,0.00,VWS V13.01,2013-08-17 09:25:00,
2013-08-17 05:30:00,83.0,76.2,30.00,SE,126,2.0,7.0,80,0.00,,CLR,0.00,VWS V13.01,2013-08-17 09:30:00,
2013-08-17 05:35:00,82.9,76.5,30.00,ESE,117,5.0,5.0,81,0.00,,CLR,0.00,VWS V13.01,2013-08-17 09:35:00,
2013-08-17 05:40:00,82.9,76.8,30.00,ESE,114,1.0,5.0,82,0.00,,CLR,0.00,VWS V13.01,2013-08-17 09:40:00,
2013-08-17 05:45:00,82.7,76.7,30.00,SE,132,1.0,5.0,82,0.00,,CLR,0.00,VWS V13.01,2013-08-17 09:45:00,
2013-08-17 05:50:00,82.7,76.7,30.00,ENE,77,0.0,5.0,82,0.00,,CLR,0.00,VWS V13.01,2013-08-17 09:50:00,
2013-08-17 05:55:00,82.7,76.7,30.00,ESE,121,1.0,8.0,82,0.00,,CLR,0.00,VWS V13.01,2013-08-17 09:55:00,
2013-08-17 06:00:00,82.7,76.7,30.00,ESE,122,5.0,8.0,82,0.00,,FEW024,0.00,VWS V13.01,2013-08-17 10:00:00,
2013-08-17 06:05:00,82.7,76.7,30.00,SE,144,1.0,4.0,82,0.00,,FEW024,0.00,VWS V13.01,2013-08-17 10:05:00,
2013-08-17 06:10:00,82.7,76.7,30.01,SE,126,5.0,5.0,82,0.00,,FEW024,0.00,VWS V13.01,2013-08-17 10:10:00,
2013-08-17 06:15:00,82.7,76.7,30.00,SE,142,4.0,5.0,82,0.00,,FEW024,0.00,VWS V13.01,2013-08-17 10:15:00,
2013-08-17 06:20:00,82.7,76.7,30.00,SE,128,2.0,5.0,82,0.00,,FEW024,0.00,VWS V13.01,2013-08-17 10:20:00,
2013-08-17 06:25:00,82.6,76.6,30.01,SSE,148,1.0,5.0,82,0.00,,FEW024,0.00,VWS V13.01,2013-08-17 10:25:00,
2013-08-17 06:30:00,82.5,76.4,30.00,SE,136,4.0,5.0,82,0.00,,FEW024,0.00,VWS V13.01,2013-08-17 10:30:00,
2013-08-17 06:35:00,82.5,76.4,30.00,SE,143,2.0,2.0,82,0.00,,FEW024,0.00,VWS V13.01,2013-08-17 10:35:00,
2013-08-17 06:40:00,82.4,76.4,30.00,SE,139,1.0,2.0,82,0.00,,FEW024,0.00,VWS V13.01,2013-08-17 10:40:00,
2013-08-17 06:45:00,82.4,76.0,30.00,SE,130,2.0,4.0,81,0.00,,FEW024,0.00,VWS V13.01,2013-08-17 10:45:00,
2013-08-17 06:50:00,82.4,76.0,30.01,SE,126,4.0,5.0,81,0.00,,FEW024,0.00,VWS V13.01,2013-08-17 10:50:00,
2013-08-17 06:55:00,82.4,75.6,30.01,SE,134,1.0,6.0,80,0.00,,FEW024,0.00,VWS V13.01,2013-08-17 10:55:00,
2013-08-17 07:00:00,82.5,76.1,30.01,ESE,111,4.0,6.0,81,0.00,,CLR,0.00,VWS V13.01,2013-08-17 11:00:00,
2013-08-17 07:05:00,82.3,75.9,30.01,SE,129,0.0,4.0,81,0.00,,CLR,0.00,VWS V13.01,2013-08-17 11:05:00,
2013-08-17 07:10:00,82.3,75.9,30.01,SE,131,1.0,4.0,81,0.00,,CLR,0.00,VWS V13.01,2013-08-17 11:10:00,
2013-08-17 07:15:00,82.5,76.1,30.01,SE,135,1.0,4.0,81,0.00,,CLR,0.00,VWS V13.01,2013-08-17 11:15:00,
2013-08-17 07:20:00,82.6,76.2,30.01,SSE,150,0.0,6.0,81,0.00,,CLR,0.00,VWS V13.01,2013-08-17 11:20:00,
2013-08-17 07:25:00,82.7,75.9,30.01,SE,128,2.0,6.0,80,0.00,,CLR,0.00,VWS V13.01,2013-08-17 11:25:00,
2013-08-17 07:30:00,82.9,76.1,30.02,ESE,123,1.0,8.0,80,0.00,,CLR,0.00,VWS V13.01,2013-08-17 11:30:00,
2013-08-17 07:35:00,83.1,76.3,30.02,ESE,117,2.0,5.0,80,0.00,,CLR,0.00,VWS V13.01,2013-08-17 11:35:00,
2013-08-17 07:40:00,83.2,76.4,30.02,SSE,163,0.0,5.0,80,0.00,,CLR,0.00,VWS V13.01,2013-08-17 11:40:00,
2013-08-17 07:45:00,83.4,76.2,30.02,ESE,108,1.0,6.0,79,0.00,,CLR,0.00,VWS V13.01,2013-08-17 11:45:00,
2013-08-17 07:50:00,83.7,76.5,30.02,ESE,106,4.0,6.0,79,0.00,,CLR,0.00,VWS V13.01,2013-08-17 11:50:00,
2013-08-17 07:55:00,83.9,76.7,30.02,SE,128,0.0,6.0,79,0.00,,CLR,0.00,VWS V13.01,2013-08-17 11:55:00,
2013-08-17 08:00:00,84.0,76.8,30.02,ESE,123,0.0,6.0,79,0.00,,CLR,0.00,VWS V13.01,2013-08-17 12:00:00,
2013-08-17 08:05:00,84.3,76.7,30.02,SE,126,1.0,5.0,78,0.00,,CLR,0.00,VWS V13.01,2013-08-17 12:05:00,
2013-08-17 08:06:00,84.3,76.7,30.02,SE,126,1.0,5.0,78,0.00,,CLR,0.00,VWS V13.01,2013-08-17 12:06:00,
2013-08-17 08:11:00,84.6,77.0,30.02,SE,125,2.0,5.0,78,0.00,,CLR,0.00,VWS V13.01,2013-08-17 12:11:00,
2013-08-17 08:16:00,84.7,76.7,30.03,SE,145,1.0,8.0,77,0.00,,CLR,0.00,VWS V13.01,2013-08-17 12:16:00,
2013-08-17 08:21:00,84.9,76.9,30.03,SSE,153,2.0,8.0,77,0.00,,CLR,0.00,VWS V13.01,2013-08-17 12:21:00,
2013-08-17 08:26:00,85.2,77.2,30.02,SSW,213,2.0,8.0,77,0.00,,CLR,0.00,VWS V13.01,2013-08-17 12:26:00,
2013-08-17 08:31:00,85.2,77.2,30.03,SE,130,2.0,8.0,77,0.00,,CLR,0.00,VWS V13.01,2013-08-17 12:31:00,
2013-08-17 08:36:00,85.5,77.1,30.03,ESE,119,4.0,8.0,76,0.00,,CLR,0.00,VWS V13.01,2013-08-17 12:36:00,
2013-08-17 08:41:00,85.5,77.1,30.03,East,86,5.0,11.0,76,0.00,,CLR,0.00,VWS V13.01,2013-08-17 12:41:00,
2013-08-17 08:46:00,86.1,77.7,30.03,SE,132,4.0,11.0,76,0.00,,CLR,0.00,VWS V13.01,2013-08-17 12:46:00,
2013-08-17 08:51:00,86.5,77.6,30.04,SE,132,1.0,11.0,75,0.00,,CLR,0.00,VWS V13.01,2013-08-17 12:51:00,
2013-08-17 08:56:00,86.7,77.8,30.04,SE,132,2.0,11.0,75,0.00,,CLR,0.00,VWS V13.01,2013-08-17 12:56:00,
2013-08-17 09:01:00,86.8,77.5,30.04,SSE,157,4.0,11.0,74,0.00,,SCT030,0.00,VWS V13.01,2013-08-17 13:01:00,
2013-08-17 09:06:00,86.8,77.1,30.04,NNW,335,1.0,8.0,73,0.00,,SCT030,0.00,VWS V13.01,2013-08-17 13:06:00,
2013-08-17 09:11:00,87.2,76.7,30.03,SE,134,2.0,10.0,71,0.00,,SCT030,0.00,VWS V13.01,2013-08-17 13:11:00,
2013-08-17 09:16:00,87.2,77.1,30.04,SE,126,2.0,10.0,72,0.00,,SCT030,0.00,VWS V13.01,2013-08-17 13:16:00,
2013-08-17 09:21:00,87.1,77.0,30.04,SE,141,5.0,10.0,72,0.00,,SCT030,0.00,VWS V13.01,2013-08-17 13:21:00,
2013-08-17 09:26:00,87.4,77.7,30.04,ESE,123,2.0,10.0,73,0.00,,SCT030,0.00,VWS V13.01,2013-08-17 13:26:00,
2013-08-17 09:31:00,87.9,78.2,30.04,WSW,251,2.0,10.0,73,0.00,,SCT030,0.00,VWS V13.01,2013-08-17 13:31:00,
2013-08-17 09:36:00,87.7,77.6,30.04,SE,143,2.0,11.0,72,0.00,,SCT030,0.00,VWS V13.01,2013-08-17 13:36:00,
2013-08-17 09:41:00,87.7,77.1,30.05,SSE,154,0.0,11.0,71,0.00,,SCT030,0.00,VWS V13.01,2013-08-17 13:41:00,
2013-08-17 09:46:00,88.1,77.5,30.05,ESE,106,6.0,11.0,71,0.00,,SCT030,0.00,VWS V13.01,2013-08-17 13:46:00,
2013-08-17 09:51:00,88.7,77.2,30.05,SSW,212,1.0,11.0,69,0.00,,SCT030,0.00,VWS V13.01,2013-08-17 13:51:00,
2013-08-17 09:56:00,88.3,77.3,30.05,SE,125,6.0,11.0,70,0.00,,SCT030,0.00,VWS V13.01,2013-08-17 13:56:00,
2013-08-17 10:01:00,88.7,77.7,30.05,ESE,106,5.0,11.0,70,0.00,,SCT026,0.00,VWS V13.01,2013-08-17 14:01:00,
2013-08-17 10:06:00,89.0,77.9,30.05,SE,130,5.0,7.0,70,0.00,,SCT026,0.00,VWS V13.01,2013-08-17 14:06:00,
2013-08-17 10:11:00,88.7,78.5,30.05,SSE,167,4.0,7.0,72,0.00,,SCT026,0.00,VWS V13.01,2013-08-17 14:11:00,
2013-08-17 10:16:00,88.6,77.1,30.05,WNW,299,3.0,9.0,69,0.00,,SCT026,0.00,VWS V13.01,2013-08-17 14:16:00,
2013-08-17 10:21:00,88.5,77.5,30.05,ESE,115,1.0,9.0,70,0.00,,SCT026,0.00,VWS V13.01,2013-08-17 14:21:00,
2013-08-17 10:26:00,87.7,76.7,30.05,East,97,5.0,12.0,70,0.00,,SCT026,0.00,VWS V13.01,2013-08-17 14:26:00,
2013-08-17 10:31:00,88.8,78.2,30.05,ESE,123,6.0,12.0,71,0.00,,SCT026,0.00,VWS V13.01,2013-08-17 14:31:00,
2013-08-17 10:36:00,89.1,77.6,30.05,ESE,114,4.0,9.0,69,0.00,,SCT026,0.00,VWS V13.01,2013-08-17 14:36:00,
2013-08-17 10:41:00,89.2,76.8,30.05,SSE,157,2.0,9.0,67,0.00,,SCT026,0.00,VWS V13.01,2013-08-17 14:41:00,
2013-08-17 10:46:00,89.5,77.6,30.05,ESE,108,1.0,9.0,68,0.00,,SCT026,0.00,VWS V13.01,2013-08-17 14:46:00,
2013-08-17 10:51:00,90.1,77.2,30.05,ESE,114,2.0,9.0,66,0.00,,SCT026,0.00,VWS V13.01,2013-08-17 14:51:00,
2013-08-17 10:56:00,90.4,76.6,30.06,East,94,1.0,9.0,64,0.00,,SCT026,0.00,VWS V13.01,2013-08-17 14:56:00,
2013-08-17 11:01:00,89.9,76.6,30.06,SSE,162,2.0,9.0,65,0.00,,SCT026,0.00,VWS V13.01,2013-08-17 15:01:00,
2013-08-17 11:06:00,90.1,77.2,30.06,SE,134,2.0,6.0,66,0.00,,SCT026,0.00,VWS V13.01,2013-08-17 15:06:00,
2013-08-17 11:11:00,89.8,76.5,30.06,East,90,8.0,11.0,65,0.00,,SCT026,0.00,VWS V13.01,2013-08-17 15:11:00,
2013-08-17 11:16:00,89.5,76.2,30.06,South,182,2.0,11.0,65,0.00,,SCT026,0.00,VWS V13.01,2013-08-17 15:16:00,
2013-08-17 11:21:00,89.8,77.4,30.05,South,169,2.0,11.0,67,0.00,,SCT026,0.00,VWS V13.01,2013-08-17 15:21:00,
2013-08-17 11:26:00,90.3,78.3,30.06,ESE,122,4.0,12.0,68,0.00,,SCT026,0.00,VWS V13.01,2013-08-17 15:26:00,
2013-08-17 11:30:00,89.7,77.3,30.06,SE,138,4.0,12.0,67,0.00,,SCT026,0.00,VWS V13.01,2013-08-17 15:30:00,
2013-08-17 11:35:00,89.3,77.4,30.05,ESE,103,7.0,9.0,68,0.00,,SCT026,0.00,VWS V13.01,2013-08-17 15:35:00,
2013-08-17 11:40:00,90.2,77.8,30.05,ESE,103,6.0,11.0,67,0.00,,SCT026,0.00,VWS V13.01,2013-08-17 15:40:00,
2013-08-17 11:45:00,90.4,77.9,30.05,ESE,119,2.0,11.0,67,0.00,,SCT026,0.00,VWS V13.01,2013-08-17 15:45:00,
2013-08-17 11:50:00,90.9,78.9,30.06,SSE,149,4.0,11.0,68,0.00,,SCT026,0.00,VWS V13.01,2013-08-17 15:50:00,
2013-08-17 11:55:00,90.1,77.7,30.05,ESE,116,4.0,11.0,67,0.00,,SCT026,0.00,VWS V13.01,2013-08-17 15:55:00,
2013-08-17 12:00:00,90.2,77.8,30.05,ENE,76,3.0,11.0,67,0.00,,SCT025,0.00,VWS V13.01,2013-08-17 16:00:00,
2013-08-17 12:05:00,89.8,77.8,30.05,ESE,122,7.0,12.0,68,0.00,,SCT025,0.00,VWS V13.01,2013-08-17 16:05:00,
2013-08-17 12:10:00,90.3,78.3,30.05,SSE,168,4.0,13.0,68,0.00,,SCT025,0.00,VWS V13.01,2013-08-17 16:10:00,
2013-08-17 12:15:00,90.0,77.6,30.05,ESE,111,7.0,13.0,67,0.00,,SCT025,0.00,VWS V13.01,2013-08-17 16:15:00,
2013-08-17 12:20:00,90.2,77.8,30.05,SE,132,8.0,13.0,67,0.00,,SCT025,0.00,VWS V13.01,2013-08-17 16:20:00,
2013-08-17 12:25:00,90.6,78.6,30.05,ESE,113,2.0,13.0,68,0.00,,SCT025,0.00,VWS V13.01,2013-08-17 16:25:00,
2013-08-17 12:30:00,90.5,77.6,30.05,SSW,197,7.0,13.0,66,0.00,,SCT025,0.00,VWS V13.01,2013-08-17 16:30:00,
2013-08-17 12:35:00,90.8,77.9,30.04,SE,127,5.0,11.0,66,0.00,,SCT025,0.00,VWS V13.01,2013-08-17 16:35:00,
2013-08-17 12:40:00,91.1,78.6,30.04,East,101,4.0,11.0,67,0.00,,SCT025,0.00,VWS V13.01,2013-08-17 16:40:00,
2013-08-17 12:45:00,90.7,78.2,30.04,East,99,8.0,14.0,67,0.00,,SCT025,0.00,VWS V13.01,2013-08-17 16:45:00,
2013-08-17 12:50:00,89.3,77.8,30.04,WSW,238,1.0,14.0,69,0.00,,SCT025,0.00,VWS V13.01,2013-08-17 16:50:00,
2013-08-17 12:55:00,90.2,78.7,30.04,ESE,118,7.0,15.0,69,0.00,,SCT025,0.00,VWS V13.01,2013-08-17 16:55:00,
2013-08-17 13:00:00,91.3,78.8,30.03,ESE,106,5.0,15.0,67,0.00,,SCT040,0.00,VWS V13.01,2013-08-17 17:00:00,
2013-08-17 13:05:00,91.1,79.1,30.03,East,98,8.0,12.0,68,0.00,,SCT040,0.00,VWS V13.01,2013-08-17 17:05:00,
2013-08-17 13:10:00,91.2,78.7,30.03,East,85,5.0,12.0,67,0.00,,SCT040,0.00,VWS V13.01,2013-08-17 17:10:00,
2013-08-17 13:16:00,89.5,76.7,30.03,ESE,111,5.0,15.0,66,0.00,,SCT040,0.00,VWS V13.01,2013-08-17 17:16:00,
2013-08-17 13:21:00,84.4,77.2,30.04,ESE,122,1.0,15.0,79,0.04,,SCT040,0.05,VWS V13.01,2013-08-17 17:21:00,
2013-08-17 13:26:00,81.3,77.4,30.03,SE,138,1.0,15.0,88,0.11,,SCT040,0.11,VWS V13.01,2013-08-17 17:26:00,
2013-08-17 13:31:00,80.5,76.6,30.04,SW,218,2.0,15.0,88,0.11,,SCT040,0.11,VWS V13.01,2013-08-17 17:31:00,
2013-08-17 13:36:00,80.9,77.7,30.03,SW,218,0.0,2.0,90,0.11,,SCT040,0.11,VWS V13.01,2013-08-17 17:36:00,
2013-08-17 13:41:00,81.7,78.5,30.03,SW,218,1.0,2.0,90,0.11,,SCT040,0.11,VWS V13.01,2013-08-17 17:41:00,
2013-08-17 13:46:00,82.7,80.1,30.03,NE,51,4.0,4.0,92,0.11,,SCT040,0.11,VWS V13.01,2013-08-17 17:46:00,
2013-08-17 13:51:00,84.4,80.5,30.03,SE,133,1.0,7.0,88,0.11,,SCT040,0.11,VWS V13.01,2013-08-17 17:51:00,
2013-08-17 13:55:00,84.7,79.3,30.03,SE,136,2.0,9.0,84,0.11,,SCT040,0.11,VWS V13.01,2013-08-17 17:55:00,
2013-08-17 14:00:00,85.2,80.2,30.03,SE,142,1.0,10.0,85,0.11,,SCT038,0.11,VWS V13.01,2013-08-17 18:00:00,
2013-08-17 14:05:00,85.6,80.6,30.03,ESE,119,2.0,5.0,85,0.11,,SCT038,0.11,VWS V13.01,2013-08-17 18:05:00,
2013-08-17 14:10:00,85.7,79.6,30.02,SE,128,9.0,12.0,82,0.11,,SCT038,0.11,VWS V13.01,2013-08-17 18:10:00,
2013-08-17 14:15:00,86.5,79.2,30.02,SSE,148,4.0,12.0,79,0.11,,SCT038,0.11,VWS V13.01,2013-08-17 18:15:00,
2013-08-17 14:20:00,86.6,79.7,30.02,SE,129,1.0,12.0,80,0.11,,SCT038,0.11,VWS V13.01,2013-08-17 18:20:00,
2013-08-17 14:25:00,88.2,79.7,30.02,ESE,119,4.0,12.0,76,0.11,,SCT038,0.11,VWS V13.01,2013-08-17 18:25:00,
2013-08-17 14:30:00,88.7,78.5,30.02,SSE,163,5.0,12.0,72,0.11,,SCT038,0.11,VWS V13.01,2013-08-17 18:30:00,
2013-08-17 14:35:00,88.6,78.8,30.02,SSW,208,2.0,9.0,73,0.00,,SCT038,0.11,VWS V13.01,2013-08-17 18:35:00,
2013-08-17 14:40:00,88.6,78.4,30.02,WNW,296,2.0,13.0,72,0.00,,SCT038,0.11,VWS V13.01,2013-08-17 18:40:00,
2013-08-17 14:45:00,88.2,77.6,30.02,ESE,113,7.0,13.0,71,0.00,,SCT038,0.11,VWS V13.01,2013-08-17 18:45:00,
2013-08-17 14:50:00,88.8,77.8,30.02,South,182,2.0,13.0,70,0.00,,SCT038,0.11,VWS V13.01,2013-08-17 18:50:00,
2013-08-17 14:55:00,89.1,77.6,30.01,SSE,152,9.0,15.0,69,0.00,,SCT038,0.11,VWS V13.01,2013-08-17 18:55:00,
2013-08-17 15:00:00,89.0,78.4,30.01,SSE,154,5.0,15.0,71,0.00,,SCT026,0.11,VWS V13.01,2013-08-17 19:00:00,
2013-08-17 15:05:00,88.6,77.1,30.01,East,101,4.0,9.0,69,0.00,,SCT026,0.11,VWS V13.01,2013-08-17 19:05:00,
2013-08-17 15:10:00,89.3,78.2,30.01,ESE,114,4.0,14.0,70,0.00,,SCT026,0.11,VWS V13.01,2013-08-17 19:10:00,
2013-08-17 15:15:00,89.8,79.1,30.01,East,97,4.0,14.0,71,0.00,,SCT026,0.11,VWS V13.01,2013-08-17 19:15:00,
2013-08-17 15:20:00,88.6,79.2,30.01,East,97,9.0,15.0,74,0.00,,SCT026,0.11,VWS V13.01,2013-08-17 19:20:00,
2013-08-17 15:25:00,88.2,78.9,30.00,East,99,11.0,15.0,74,0.00,,SCT026,0.11,VWS V13.01,2013-08-17 19:25:00,
2013-08-17 15:30:00,88.8,78.2,30.00,SE,125,5.0,15.0,71,0.00,,SCT026,0.11,VWS V13.01,2013-08-17 19:30:00,
2013-08-17 15:35:00,88.6,77.6,30.00,ESE,116,5.0,15.0,70,0.00,,SCT026,0.11,VWS V13.01,2013-08-17 19:35:00,
2013-08-17 15:40:00,89.1,77.6,30.00,SE,133,4.0,15.0,69,0.00,,SCT026,0.11,VWS V13.01,2013-08-17 19:40:00,
2013-08-17 15:45:00,89.1,76.7,30.00,South,178,5.0,15.0,67,0.00,,SCT026,0.11,VWS V13.01,2013-08-17 19:45:00,
2013-08-17 15:50:00,89.3,76.9,29.99,ESE,116,4.0,15.0,67,0.00,,SCT026,0.11,VWS V13.01,2013-08-17 19:50:00,
2013-08-17 15:55:00,89.7,78.2,30.00,SE,138,4.0,15.0,69,0.00,,SCT026,0.11,VWS V13.01,2013-08-17 19:55:00,
2013-08-17 16:00:00,89.9,77.5,29.99,ESE,117,5.0,15.0,67,0.00,,FEW030,0.11,VWS V13.01,2013-08-17 20:00:00,
2013-08-17 16:05:00,89.1,77.2,30.00,ESE,123,4.0,9.0,68,0.00,,FEW030,0.11,VWS V13.01,2013-08-17 20:05:00,
2013-08-17 16:12:00,89.3,76.5,30.00,SE,146,7.0,11.0,66,0.00,,FEW030,0.11,VWS V13.01,2013-08-17 20:12:00,
2013-08-17 16:17:00,89.6,77.2,29.99,SE,143,7.0,11.0,67,0.00,,FEW030,0.11,VWS V13.01,2013-08-17 20:17:00,
2013-08-17 16:22:00,89.2,77.3,30.00,East,88,7.0,12.0,68,0.00,,FEW030,0.11,VWS V13.01,2013-08-17 20:22:00,
2013-08-17 16:27:00,89.2,77.3,30.00,ESE,109,4.0,13.0,68,0.00,,FEW030,0.11,VWS V13.01,2013-08-17 20:27:00,
2013-08-17 16:32:00,89.4,78.3,30.00,East,95,4.0,7.0,70,0.00,,FEW030,0.11,VWS V13.01,2013-08-17 20:32:00,
2013-08-17 16:37:00,89.9,77.5,30.00,SE,130,5.0,9.0,67,0.00,,FEW030,0.11,VWS V13.01,2013-08-17 20:37:00,
2013-08-17 16:42:00,89.5,78.0,30.00,SE,142,4.0,9.0,69,0.00,,FEW030,0.11,VWS V13.01,2013-08-17 20:42:00,
2013-08-17 16:47:00,89.3,77.4,30.00,ESE,115,5.0,12.0,68,0.00,,FEW030,0.11,VWS V13.01,2013-08-17 20:47:00,
2013-08-17 16:52:00,88.9,77.8,30.00,SE,136,6.0,12.0,70,0.00,,FEW030,0.11,VWS V13.01,2013-08-17 20:52:00,
2013-08-17 16:57:00,89.6,78.1,29.99,East,84,6.0,12.0,69,0.00,,FEW030,0.11,VWS V13.01,2013-08-17 20:57:00,
2013-08-17 17:02:00,89.2,77.7,30.00,SE,128,6.0,12.0,69,0.00,,FEW027,0.11,VWS V13.01,2013-08-17 21:02:00,
2013-08-17 17:07:00,88.9,77.8,30.00,East,96,4.0,12.0,70,0.00,,FEW027,0.11,VWS V13.01,2013-08-17 21:07:00,
2013-08-17 17:12:00,89.1,77.6,29.99,ESE,109,5.0,12.0,69,0.00,,FEW027,0.11,VWS V13.01,2013-08-17 21:12:00,
2013-08-17 17:17:00,88.9,77.8,29.99,East,98,4.0,12.0,70,0.00,,FEW027,0.11,VWS V13.01,2013-08-17 21:17:00,
2013-08-17 17:22:00,89.2,78.1,29.99,SSE,148,4.0,13.0,70,0.00,,FEW027,0.11,VWS V13.01,2013-08-17 21:22:00,
2013-08-17 17:27:00,89.5,79.3,29.99,ESE,121,4.0,13.0,72,0.00,,FEW027,0.11,VWS V13.01,2013-08-17 21:27:00,
2013-08-17 17:32:00,88.7,78.1,30.00,SSE,147,10.0,12.0,71,0.00,,FEW027,0.11,VWS V13.01,2013-08-17 21:32:00,
2013-08-17 17:37:00,87.6,78.3,30.00,ESE,111,4.0,13.0,74,0.00,,FEW027,0.11,VWS V13.01,2013-08-17 21:37:00,
2013-08-17 17:42:00,87.5,78.2,30.00,SE,144,5.0,13.0,74,0.00,,FEW027,0.11,VWS V13.01,2013-08-17 21:42:00,
2013-08-17 17:47:00,88.2,78.4,30.00,East,96,7.0,13.0,73,0.00,,FEW027,0.11,VWS V13.01,2013-08-17 21:47:00,
2013-08-17 17:52:00,87.8,78.1,30.00,SE,127,7.0,13.0,73,0.00,,FEW027,0.11,VWS V13.01,2013-08-17 21:52:00,
2013-08-17 17:57:00,87.6,77.9,29.99,ESE,117,4.0,13.0,73,0.00,,FEW027,0.11,VWS V13.01,2013-08-17 21:57:00,
2013-08-17 18:02:00,87.7,77.6,30.00,East,96,4.0,6.0,72,0.00,,SCT025,0.11,VWS V13.01,2013-08-17 22:02:00,
2013-08-17 18:07:00,88.1,78.4,30.00,East,81,7.0,11.0,73,0.00,,SCT025,0.11,VWS V13.01,2013-08-17 22:07:00,
2013-08-17 18:12:00,87.4,77.7,30.00,SE,130,5.0,13.0,73,0.00,,SCT025,0.11,VWS V13.01,2013-08-17 22:12:00,
2013-08-17 18:17:00,87.1,77.8,30.00,SE,133,8.0,13.0,74,0.00,,SCT025,0.11,VWS V13.01,2013-08-17 22:17:00,
2013-08-17 18:22:00,87.2,77.9,30.00,SE,132,8.0,13.0,74,0.00,,SCT025,0.11,VWS V13.01,2013-08-17 22:22:00,
2013-08-17 18:27:00,87.2,77.9,30.00,SE,143,6.0,13.0,74,0.00,,SCT025,0.11,VWS V13.01,2013-08-17 22:27:00,
2013-08-17 18:32:00,86.6,78.1,30.00,SE,130,4.0,7.0,76,0.00,,SCT025,0.11,VWS V13.01,2013-08-17 22:32:00,
2013-08-17 18:37:00,86.3,77.8,30.00,SE,129,4.0,9.0,76,0.00,,SCT025,0.11,VWS V13.01,2013-08-17 22:37:00,
2013-08-17 18:42:00,86.1,76.4,30.00,East,91,6.0,11.0,73,0.00,,SCT025,0.11,VWS V13.01,2013-08-17 22:42:00,
2013-08-17 18:47:00,86.3,76.2,30.00,SSE,150,4.0,11.0,72,0.00,,SCT025,0.11,VWS V13.01,2013-08-17 22:47:00,
2013-08-17 18:52:00,86.3,76.6,30.00,ESE,108,5.0,12.0,73,0.00,,SCT025,0.11,VWS V13.01,2013-08-17 22:52:00,
2013-08-17 18:57:00,86.3,76.2,30.00,ESE,119,7.0,12.0,72,0.00,,SCT025,0.11,VWS V13.01,2013-08-17 22:57:00,
2013-08-17 19:02:00,86.4,76.3,30.00,SE,140,5.0,7.0,72,0.00,,CLR,0.11,VWS V13.01,2013-08-17 23:02:00,
2013-08-17 19:07:00,86.4,76.3,30.01,East,96,8.0,11.0,72,0.00,,CLR,0.11,VWS V13.01,2013-08-17 23:07:00,
2013-08-17 19:12:00,86.2,76.9,30.01,SE,127,4.0,11.0,74,0.00,,CLR,0.11,VWS V13.01,2013-08-17 23:12:00,
2013-08-17 19:17:00,85.9,77.5,30.01,ESE,106,5.0,11.0,76,0.00,,CLR,0.11,VWS V13.01,2013-08-17 23:17:00,
2013-08-17 19:22:00,85.7,76.9,30.01,ESE,119,8.0,12.0,75,0.00,,CLR,0.11,VWS V13.01,2013-08-17 23:22:00,
2013-08-17 19:27:00,85.6,76.8,30.02,ESE,110,5.0,12.0,75,0.00,,CLR,0.11,VWS V13.01,2013-08-17 23:27:00,
2013-08-17 19:32:00,85.3,76.9,30.02,ESE,121,2.0,5.0,76,0.00,,CLR,0.11,VWS V13.01,2013-08-17 23:32:00,
2013-08-17 19:37:00,85.4,77.0,30.02,SE,143,4.0,11.0,76,0.00,,CLR,0.11,VWS V13.01,2013-08-17 23:37:00,
2013-08-17 19:42:00,85.5,76.7,30.02,East,96,8.0,11.0,75,0.00,,CLR,0.11,VWS V13.01,2013-08-17 23:42:00,
2013-08-17 19:47:00,85.5,76.7,30.02,SE,129,4.0,11.0,75,0.00,,CLR,0.11,VWS V13.01,2013-08-17 23:47:00,
2013-08-17 19:52:00,85.3,76.9,30.02,East,89,4.0,11.0,76,0.00,,CLR,0.11,VWS V13.01,2013-08-17 23:52:00,
2013-08-17 19:57:00,85.2,76.8,30.03,SSE,162,5.0,11.0,76,0.00,,CLR,0.11,VWS V13.01,2013-08-17 23:57:00,
2013-08-17 20:02:00,85.0,77.0,30.03,ESE,123,2.0,7.0,77,0.00,,CLR,0.11,VWS V13.01,2013-08-18 00:02:00,
2013-08-17 20:07:00,84.8,77.2,30.03,ESE,111,5.0,7.0,78,0.00,,CLR,0.11,VWS V13.01,2013-08-18 00:07:00,
2013-08-17 20:12:00,84.8,76.8,30.03,East,84,4.0,9.0,77,0.00,,CLR,0.11,VWS V13.01,2013-08-18 00:12:00,
2013-08-17 20:17:00,84.9,77.3,30.03,ESE,122,4.0,9.0,78,0.00,,CLR,0.11,VWS V13.01,2013-08-18 00:17:00,
2013-08-17 20:22:00,84.8,77.2,30.03,ESE,117,4.0,9.0,78,0.00,,CLR,0.11,VWS V13.01,2013-08-18 00:22:00,
2013-08-17 20:27:00,84.9,77.3,30.04,SE,124,4.0,9.0,78,0.00,,CLR,0.11,VWS V13.01,2013-08-18 00:27:00,
2013-08-17 20:32:00,84.8,77.2,30.04,ESE,105,4.0,5.0,78,0.00,,CLR,0.11,VWS V13.01,2013-08-18 00:32:00,
2013-08-17 20:37:00,84.8,76.8,30.04,ESE,114,2.0,7.0,77,0.00,,CLR,0.11,VWS V13.01,2013-08-18 00:37:00,
2013-08-17 20:42:00,84.7,76.7,30.04,ESE,107,5.0,8.0,77,0.00,,CLR,0.11,VWS V13.01,2013-08-18 00:42:00,
2013-08-17 20:47:00,84.7,76.7,30.04,ESE,108,2.0,8.0,77,0.00,,CLR,0.11,VWS V13.01,2013-08-18 00:47:00,
2013-08-17 20:52:00,84.6,77.0,30.04,East,86,5.0,8.0,78,0.00,,CLR,0.11,VWS V13.01,2013-08-18 00:52:00,
2013-08-17 20:57:00,84.6,77.0,30.04,East,80,4.0,8.0,78,0.00,,CLR,0.11,VWS V13.01,2013-08-18 00:57:00,
2013-08-17 21:02:00,84.7,77.1,30.04,East,98,5.0,5.0,78,0.00,,CLR,0.11,VWS V13.01,2013-08-18 01:02:00,
2013-08-17 21:07:00,84.7,77.1,30.05,East,86,5.0,9.0,78,0.00,,CLR,0.11,VWS V13.01,2013-08-18 01:07:00,
2013-08-17 21:12:00,84.7,77.1,30.05,SE,129,2.0,11.0,78,0.00,,CLR,0.11,VWS V13.01,2013-08-18 01:12:00,
2013-08-17 21:16:00,84.7,76.7,30.05,SE,126,6.0,11.0,77,0.00,,CLR,0.11,VWS V13.01,2013-08-18 01:16:00,
2013-08-17 21:21:00,84.6,77.0,30.05,SE,132,4.0,11.0,78,0.00,,CLR,0.11,VWS V13.01,2013-08-18 01:21:00,
2013-08-17 21:26:00,84.5,76.9,30.05,East,88,5.0,11.0,78,0.00,,CLR,0.11,VWS V13.01,2013-08-18 01:26:00,
2013-08-17 21:31:00,84.4,76.8,30.05,SSE,153,6.0,8.0,78,0.00,,CLR,0.11,VWS V13.01,2013-08-18 01:31:00,
2013-08-17 21:36:00,84.4,76.8,30.05,ESE,118,5.0,8.0,78,0.00,,CLR,0.11,VWS V13.01,2013-08-18 01:36:00,
2013-08-17 21:41:00,84.5,76.5,30.05,SE,144,5.0,8.0,77,0.00,,CLR,0.11,VWS V13.01,2013-08-18 01:41:00,
2013-08-17 21:46:00,84.5,76.9,30.05,East,97,5.0,9.0,78,0.00,,CLR,0.11,VWS V13.01,2013-08-18 01:46:00,
2013-08-17 21:51:00,84.4,76.8,30.05,SE,129,4.0,9.0,78,0.00,,CLR,0.11,VWS V13.01,2013-08-18 01:51:00,
2013-08-17 21:56:00,84.2,76.2,30.05,SE,142,4.0,9.0,77,0.00,,CLR,0.11,VWS V13.01,2013-08-18 01:56:00,
2013-08-17 22:01:00,84.2,76.2,30.05,ESE,121,5.0,5.0,77,0.00,,CLR,0.11,VWS V13.01,2013-08-18 02:01:00,
2013-08-17 22:06:00,84.2,75.8,30.06,ESE,117,5.0,6.0,76,0.00,,CLR,0.11,VWS V13.01,2013-08-18 02:06:00,
2013-08-17 22:11:00,84.3,75.5,30.06,SE,142,4.0,7.0,75,0.00,,CLR,0.11,VWS V13.01,2013-08-18 02:11:00,
2013-08-17 22:16:00,84.1,75.3,30.06,ESE,106,6.0,9.0,75,0.00,,CLR,0.11,VWS V13.01,2013-08-18 02:16:00,
2013-08-17 22:21:00,84.1,75.7,30.06,ESE,108,5.0,9.0,76,0.00,,CLR,0.11,VWS V13.01,2013-08-18 02:21:00,
2013-08-17 22:26:00,84.1,76.1,30.06,ESE,110,4.0,9.0,77,0.00,,CLR,0.11,VWS V13.01,2013-08-18 02:26:00,
2013-08-17 22:31:00,84.1,76.1,30.06,SSE,154,5.0,5.0,77,0.00,,CLR,0.11,VWS V13.01,2013-08-18 02:31:00,
2013-08-17 22:36:00,84.2,76.2,30.06,East,95,6.0,6.0,77,0.00,,CLR,0.11,VWS V13.01,2013-08-18 02:36:00,
2013-08-17 22:41:00,84.0,76.0,30.06,East,96,7.0,9.0,77,0.00,,CLR,0.11,VWS V13.01,2013-08-18 02:41:00,
2013-08-17 22:46:00,84.0,76.4,30.06,ESE,102,2.0,9.0,78,0.00,,CLR,0.11,VWS V13.01,2013-08-18 02:46:00,
2013-08-17 22:51:00,83.9,76.7,30.07,SE,130,4.0,9.0,79,0.00,,CLR,0.11,VWS V13.01,2013-08-18 02:51:00,
2013-08-17 22:56:00,83.9,76.7,30.07,ENE,76,3.0,9.0,79,0.00,,CLR,0.11,VWS V13.01,2013-08-18 02:56:00,
2013-08-17 23:01:00,83.8,76.2,30.07,ESE,123,1.0,2.0,78,0.00,,CLR,0.11,VWS V13.01,2013-08-18 03:01:00,
2013-08-17 23:06:00,83.8,76.2,30.07,SE,134,1.0,6.0,78,0.00,,CLR,0.11,VWS V13.01,2013-08-18 03:06:00,
2013-08-17 23:11:00,83.8,76.6,30.07,ESE,109,4.0,7.0,79,0.00,,CLR,0.11,VWS V13.01,2013-08-18 03:11:00,
2013-08-17 23:16:00,83.9,76.7,30.07,SE,128,2.0,7.0,79,0.00,,CLR,0.11,VWS V13.01,2013-08-18 03:16:00,
2013-08-17 23:21:00,83.8,76.2,30.07,SE,138,6.0,11.0,78,0.00,,CLR,0.11,VWS V13.01,2013-08-18 03:21:00,
2013-08-17 23:26:00,83.8,76.2,30.07,ESE,113,5.0,11.0,78,0.00,,CLR,0.11,VWS V13.01,2013-08-18 03:26:00,
2013-08-17 23:31:00,83.9,76.7,30.07,NE,47,6.0,6.0,79,0.00,,CLR,0.11,VWS V13.01,2013-08-18 03:31:00,
2013-08-17 23:36:00,83.9,76.7,30.07,ESE,105,7.0,12.0,79,0.00,,CLR,0.11,VWS V13.01,2013-08-18 03:36:00,
2013-08-17 23:41:00,83.8,76.6,30.06,East,101,4.0,12.0,79,0.00,,CLR,0.11,VWS V13.01,2013-08-18 03:41:00,
2013-08-17 23:46:00,83.8,76.6,30.06,ESE,103,4.0,12.0,79,0.00,,CLR,0.11,VWS V13.01,2013-08-18 03:46:00,
2013-08-17 23:51:00,83.7,76.9,30.06,ESE,109,5.0,12.0,80,0.00,,CLR,0.11,VWS V13.01,2013-08-18 03:51:00,
2013-08-17 23:56:00,83.6,76.4,30.06,East,84,2.0,12.0,79,0.00,,CLR,0.11,VWS V13.01,2013-08-18 03:56:00,